ARG4373 SABE-SARC

Flight info

Callsign ARG4373
Flight time 1h 8m
Altitude 35000
Route LANDA4B LANDA UN785 GUA UL793 KILIP KILIP1Z
Aircraft B738/M-SDE2E3FGHIRWXY/LB1

Departure

Time 2026-05-04 19:16
Airport Aeroparque Jorge Newbery (SABE)

Arrival

Time 2026-05-04 20:24
Airport Corrientes Airport (SARC)
Time Latitude Longitude Altitude Speed Heading
2026-05-04 19:00 -34.55798 -58.41250 24 ft 0 kts 36°
2026-05-04 19:07 -34.55805 -58.41256 25 ft 2 kts 36°
2026-05-04 19:07 -34.55816 -58.41266 32 ft 2 kts 25°
2026-05-04 19:07 -34.55828 -58.41271 26 ft 2 kts
2026-05-04 19:08 -34.55840 -58.41270 26 ft 2 kts 329°
2026-05-04 19:08 -34.55848 -58.41259 26 ft 1 kts 302°
2026-05-04 19:08 -34.55855 -58.41246 26 ft 1 kts 300°
2026-05-04 19:08 -34.55861 -58.41233 26 ft 1 kts 307°
2026-05-04 19:09 -34.55867 -58.41224 26 ft 0 kts 307°
2026-05-04 19:09 -34.55868 -58.41224 32 ft 0 kts 306°
2026-05-04 19:09 -34.55867 -58.41224 30 ft 0 kts 306°
2026-05-04 19:10 -34.55867 -58.41225 30 ft 0 kts 306°
2026-05-04 19:11 -34.55863 -58.41231 30 ft 2 kts 306°
2026-05-04 19:11 -34.55854 -58.41258 30 ft 5 kts 275°
2026-05-04 19:11 -34.55877 -58.41291 27 ft 6 kts 207°
2026-05-04 19:11 -34.55925 -58.41296 28 ft 8 kts 145°
2026-05-04 19:12 -34.55964 -58.41236 27 ft 10 kts 128°
2026-05-04 19:12 -34.56071 -58.41068 24 ft 15 kts 127°
2026-05-04 19:12 -34.56135 -58.40962 24 ft 16 kts 124°
2026-05-04 19:13 -34.56171 -58.40852 24 ft 12 kts 88°
2026-05-04 19:13 -34.56212 -58.40758 27 ft 14 kts 124°
2026-05-04 19:13 -34.56268 -58.40657 27 ft 14 kts 124°
2026-05-04 19:13 -34.56321 -58.40571 29 ft 8 kts 138°
2026-05-04 19:14 -34.56368 -58.40520 24 ft 10 kts 138°
2026-05-04 19:14 -34.56428 -58.40455 24 ft 13 kts 138°
2026-05-04 19:14 -34.56499 -58.40383 24 ft 13 kts 156°
2026-05-04 19:14 -34.56549 -58.40447 24 ft 13 kts 285°
2026-05-04 19:15 -34.56498 -58.40551 24 ft 18 kts 303°
2026-05-04 19:15 -34.56402 -58.40722 26 ft 39 kts 303°
2026-05-04 19:15 -34.56083 -58.41296 26 ft 123 kts 304°
2026-05-04 19:15 -34.55475 -58.42384 260 ft 171 kts 305°
2026-05-04 19:16 -34.54607 -58.43293 1352 ft 166 kts 333°
2026-05-04 19:16 -34.53547 -58.44079 2145 ft 187 kts 324°
2026-05-04 19:16 -34.52319 -58.44722 2947 ft 200 kts 351°
2026-05-04 19:16 -34.50907 -58.44640 3790 ft 209 kts
2026-05-04 19:17 -34.49491 -58.44088 4578 ft 219 kts 21°
2026-05-04 19:17 -34.48058 -58.43518 5338 ft 216 kts 354°
2026-05-04 19:17 -34.46620 -58.43901 6137 ft 214 kts 340°
2026-05-04 19:17 -34.45158 -58.44356 6836 ft 221 kts 344°
2026-05-04 19:18 -34.43615 -58.44676 7481 ft 231 kts 348°
2026-05-04 19:18 -34.41999 -58.44931 8180 ft 238 kts 349°
2026-05-04 19:18 -34.40331 -58.45168 8882 ft 244 kts 350°
2026-05-04 19:18 -34.38622 -58.45397 9603 ft 249 kts 351°
2026-05-04 19:19 -34.36880 -58.45622 10280 ft 254 kts 351°
2026-05-04 19:19 -34.35115 -58.45843 10940 ft 257 kts 349°
2026-05-04 19:19 -34.33329 -58.46062 11619 ft 259 kts 349°
2026-05-04 19:19 -34.31532 -58.46279 12309 ft 260 kts 348°
2026-05-04 19:20 -34.29735 -58.46493 13010 ft 260 kts 347°
2026-05-04 19:20 -34.27943 -58.46704 13713 ft 258 kts 346°
2026-05-04 19:20 -34.26148 -58.46917 14284 ft 260 kts 346°
2026-05-04 19:20 -34.24328 -58.47136 14836 ft 266 kts 346°
2026-05-04 19:21 -34.22476 -58.47358 15454 ft 269 kts 345°
2026-05-04 19:21 -34.21240 -58.47505 15856 ft 271 kts 345°
2026-05-04 19:21 -34.18709 -58.47805 16690 ft 275 kts 345°
2026-05-04 19:21 -34.17447 -58.47954 17121 ft 276 kts 345°
2026-05-04 19:22 -34.14887 -58.48253 17956 ft 277 kts 345°
2026-05-04 19:22 -34.12975 -58.48475 18541 ft 276 kts 344°
2026-05-04 19:22 -34.11070 -58.48695 19095 ft 274 kts 344°
2026-05-04 19:22 -34.09178 -58.48915 19563 ft 277 kts 344°
2026-05-04 19:23 -34.07242 -58.49150 19775 ft 289 kts 344°
2026-05-04 19:23 -34.05218 -58.49394 20152 ft 295 kts 345°
2026-05-04 19:23 -34.03824 -58.49560 20400 ft 300 kts 345°
2026-05-04 19:23 -34.01032 -58.49889 20905 ft 309 kts 345°
2026-05-04 19:24 -33.98871 -58.50142 21286 ft 315 kts 345°
2026-05-04 19:24 -33.96667 -58.50400 21675 ft 321 kts 345°
2026-05-04 19:24 -33.94420 -58.50661 22061 ft 327 kts 345°
2026-05-04 19:24 -33.92133 -58.50927 22451 ft 333 kts 345°
2026-05-04 19:25 -33.89810 -58.51196 22849 ft 338 kts 345°
2026-05-04 19:25 -33.87447 -58.51470 23252 ft 343 kts 345°
2026-05-04 19:25 -33.85050 -58.51747 23629 ft 348 kts 345°
2026-05-04 19:25 -33.83445 -58.51932 23849 ft 351 kts 346°
2026-05-04 19:26 -33.80997 -58.52215 24196 ft 355 kts 346°
2026-05-04 19:26 -33.78526 -58.52501 24540 ft 359 kts 346°
2026-05-04 19:26 -33.76025 -58.52790 24890 ft 362 kts 346°
2026-05-04 19:26 -33.73506 -58.53080 25247 ft 365 kts 346°
2026-05-04 19:27 -33.70967 -58.53373 25592 ft 368 kts 346°
2026-05-04 19:27 -33.68404 -58.53669 25947 ft 371 kts 346°
2026-05-04 19:27 -33.65830 -58.53965 26305 ft 373 kts 346°
2026-05-04 19:27 -33.63243 -58.54263 26675 ft 374 kts 346°
2026-05-04 19:28 -33.60645 -58.54562 27042 ft 376 kts 346°
2026-05-04 19:28 -33.58042 -58.54862 27418 ft 376 kts 346°
2026-05-04 19:28 -33.55464 -58.55158 27790 ft 377 kts 346°
2026-05-04 19:28 -33.52818 -58.55462 28175 ft 377 kts 346°
2026-05-04 19:29 -33.50205 -58.55762 28562 ft 377 kts 346°
2026-05-04 19:29 -33.47629 -58.56058 28946 ft 376 kts 346°
2026-05-04 19:29 -33.45027 -58.56356 29341 ft 375 kts 346°
2026-05-04 19:29 -33.42426 -58.56654 29742 ft 374 kts 346°
2026-05-04 19:30 -33.39844 -58.56950 30118 ft 372 kts 345°
2026-05-04 19:30 -33.37276 -58.57244 30462 ft 370 kts 345°
2026-05-04 19:30 -33.34722 -58.57536 30807 ft 367 kts 345°
2026-05-04 19:30 -33.32189 -58.57825 31155 ft 364 kts 345°
2026-05-04 19:31 -33.29681 -58.58111 31506 ft 360 kts 344°
2026-05-04 19:31 -33.27197 -58.58395 31858 ft 356 kts 344°
2026-05-04 19:31 -33.24728 -58.58679 32007 ft 360 kts 344°
2026-05-04 19:31 -33.22171 -58.58988 31671 ft 378 kts 345°
2026-05-04 19:32 -33.19507 -58.59308 31517 ft 391 kts 345°
2026-05-04 19:32 -33.14010 -58.59934 31626 ft 403 kts 346°
2026-05-04 19:33 -33.08333 -58.60573 31699 ft 416 kts 346°
2026-05-04 19:33 -33.02485 -58.61237 31771 ft 428 kts 346°
2026-05-04 19:34 -32.96454 -58.61853 31839 ft 441 kts 348°
2026-05-04 19:34 -32.90237 -58.62360 31907 ft 453 kts 348°
2026-05-04 19:35 -32.83901 -58.62865 32157 ft 458 kts 348°
2026-05-04 19:35 -32.80725 -58.63122 32375 ft 458 kts 348°
2026-05-04 19:35 -32.77548 -58.63384 32579 ft 458 kts 348°
2026-05-04 19:35 -32.74413 -58.63646 32742 ft 459 kts 348°
2026-05-04 19:36 -32.71178 -58.63919 32912 ft 460 kts 348°
2026-05-04 19:36 -32.67979 -58.64190 33072 ft 461 kts 348°
2026-05-04 19:36 -32.64819 -58.64457 33227 ft 462 kts 348°
2026-05-04 19:36 -32.61615 -58.64727 33394 ft 462 kts 348°
2026-05-04 19:37 -32.58404 -58.64996 33667 ft 460 kts 348°
2026-05-04 19:37 -32.55213 -58.65262 33918 ft 459 kts 348°
2026-05-04 19:37 -32.52033 -58.65527 34148 ft 457 kts 348°
2026-05-04 19:37 -32.48868 -58.65792 34373 ft 455 kts 348°
2026-05-04 19:38 -32.45720 -58.66056 34601 ft 453 kts 347°
2026-05-04 19:38 -32.42583 -58.66319 34831 ft 451 kts 347°
2026-05-04 19:38 -32.39455 -58.66582 35011 ft 450 kts 347°
2026-05-04 19:39 -32.33147 -58.67117 35003 ft 458 kts 348°
2026-05-04 19:39 -32.26785 -58.67642 35015 ft 465 kts 348°
2026-05-04 19:40 -32.20279 -58.68169 35007 ft 472 kts 348°
2026-05-04 19:40 -32.13690 -58.68699 35001 ft 476 kts 348°
2026-05-04 19:41 -32.07070 -58.69230 34998 ft 477 kts 348°
2026-05-04 19:41 -32.00444 -58.69761 35000 ft 477 kts 348°
2026-05-04 19:42 -31.93816 -58.70294 35002 ft 476 kts 348°
2026-05-04 19:42 -31.87209 -58.70825 35003 ft 475 kts 348°
2026-05-04 19:43 -31.80618 -58.71355 35001 ft 474 kts 348°
2026-05-04 19:43 -31.74042 -58.71883 35002 ft 473 kts 348°
2026-05-04 19:44 -31.67480 -58.72409 35003 ft 472 kts 348°
2026-05-04 19:44 -31.60981 -58.72930 35000 ft 471 kts 348°
2026-05-04 19:45 -31.54451 -58.73452 35006 ft 470 kts 348°
2026-05-04 19:45 -31.47927 -58.73973 35005 ft 469 kts 348°
2026-05-04 19:46 -31.41414 -58.74493 35003 ft 469 kts 348°
2026-05-04 19:46 -31.34907 -58.75011 35004 ft 469 kts 348°
2026-05-04 19:47 -31.28401 -58.75529 35001 ft 469 kts 348°
2026-05-04 19:47 -31.21887 -58.76046 34999 ft 469 kts 348°
2026-05-04 19:48 -31.15369 -58.76563 35001 ft 469 kts 348°
2026-05-04 19:48 -31.08902 -58.77075 35000 ft 469 kts 349°
2026-05-04 19:49 -31.02378 -58.77591 34997 ft 470 kts 349°
2026-05-04 19:49 -30.95851 -58.78107 35001 ft 470 kts 349°
2026-05-04 19:50 -30.89318 -58.78638 35006 ft 470 kts 348°
2026-05-04 19:50 -30.82789 -58.79213 34996 ft 471 kts 348°
2026-05-04 19:51 -30.76250 -58.79791 34998 ft 471 kts 348°
2026-05-04 19:51 -30.69709 -58.80361 34998 ft 472 kts 348°
2026-05-04 19:52 -30.63163 -58.80927 34996 ft 472 kts 348°
2026-05-04 19:52 -30.56615 -58.81493 34999 ft 472 kts 348°
2026-05-04 19:53 -30.50071 -58.82059 34998 ft 472 kts 348°
2026-05-04 19:53 -30.43518 -58.82596 34999 ft 472 kts 349°
2026-05-04 19:54 -30.37004 -58.83100 35000 ft 472 kts 349°
2026-05-04 19:54 -30.30453 -58.83607 35004 ft 472 kts 349°
2026-05-04 19:55 -30.23898 -58.84121 35002 ft 472 kts 349°
2026-05-04 19:55 -30.17345 -58.84635 35001 ft 472 kts 349°
2026-05-04 19:56 -30.10792 -58.85149 35000 ft 472 kts 349°
2026-05-04 19:56 -30.04234 -58.85662 34999 ft 472 kts 349°
2026-05-04 19:57 -29.97682 -58.86174 35004 ft 472 kts 348°
2026-05-04 19:57 -29.91123 -58.86685 35001 ft 473 kts 348°
2026-05-04 19:58 -29.84555 -58.87197 35005 ft 473 kts 348°
2026-05-04 19:58 -29.77985 -58.87708 35002 ft 473 kts 348°
2026-05-04 19:59 -29.71409 -58.88220 35002 ft 473 kts 348°
2026-05-04 19:59 -29.64878 -58.88728 34995 ft 474 kts 348°
2026-05-04 19:59 -29.61579 -58.88989 34816 ft 477 kts 348°
2026-05-04 20:00 -29.58274 -58.89252 34514 ft 476 kts 348°
2026-05-04 20:00 -29.54980 -58.89512 34117 ft 471 kts 349°
2026-05-04 20:00 -29.51728 -58.89766 33634 ft 467 kts 349°
2026-05-04 20:00 -29.48503 -58.90018 33099 ft 462 kts 349°
2026-05-04 20:01 -29.45311 -58.90268 32542 ft 458 kts 349°
2026-05-04 20:01 -29.42139 -58.90519 31984 ft 455 kts 349°
2026-05-04 20:01 -29.38995 -58.90768 31440 ft 453 kts 350°
2026-05-04 20:01 -29.35852 -58.91017 30917 ft 452 kts 350°
2026-05-04 20:02 -29.32724 -58.91265 30390 ft 450 kts 351°
2026-05-04 20:02 -29.29603 -58.91512 29860 ft 449 kts 351°
2026-05-04 20:02 -29.26495 -58.91756 29256 ft 447 kts 351°
2026-05-04 20:02 -29.23395 -58.91998 28670 ft 445 kts 351°
2026-05-04 20:03 -29.20358 -58.92235 28103 ft 443 kts 351°
2026-05-04 20:03 -29.17288 -58.92475 27559 ft 441 kts 351°
2026-05-04 20:03 -29.14238 -58.92713 27029 ft 438 kts 351°
2026-05-04 20:03 -29.11202 -58.92950 26505 ft 436 kts 351°
2026-05-04 20:04 -29.08181 -58.93187 26002 ft 434 kts 351°
2026-05-04 20:04 -29.05173 -58.93422 25495 ft 432 kts 351°
2026-05-04 20:04 -29.02180 -58.93657 25005 ft 430 kts 351°
2026-05-04 20:04 -28.99196 -58.93890 24530 ft 429 kts 351°
2026-05-04 20:05 -28.96230 -58.94122 24056 ft 427 kts 352°
2026-05-04 20:05 -28.93269 -58.94353 23587 ft 425 kts 352°
2026-05-04 20:05 -28.90325 -58.94583 23052 ft 424 kts 352°
2026-05-04 20:05 -28.87392 -58.94812 22510 ft 422 kts 352°
2026-05-04 20:06 -28.84470 -58.95039 21978 ft 420 kts 352°
2026-05-04 20:06 -28.81564 -58.95264 21451 ft 418 kts 352°
2026-05-04 20:06 -28.78666 -58.95488 20936 ft 416 kts 352°
2026-05-04 20:06 -28.75788 -58.95710 20431 ft 413 kts 352°
2026-05-04 20:07 -28.72921 -58.95932 19933 ft 411 kts 352°
2026-05-04 20:07 -28.70071 -58.96152 19441 ft 409 kts 352°
2026-05-04 20:07 -28.67236 -58.96371 18958 ft 407 kts 352°
2026-05-04 20:07 -28.64424 -58.96588 18481 ft 404 kts 352°
2026-05-04 20:08 -28.61625 -58.96804 17985 ft 402 kts 352°
2026-05-04 20:08 -28.58843 -58.97019 17451 ft 399 kts 352°
2026-05-04 20:08 -28.56077 -58.97233 16921 ft 397 kts 352°
2026-05-04 20:08 -28.53364 -58.97443 16414 ft 395 kts 352°
2026-05-04 20:09 -28.50628 -58.97654 15900 ft 393 kts 352°
2026-05-04 20:09 -28.47870 -58.97866 15393 ft 391 kts 352°
2026-05-04 20:09 -28.45197 -58.98072 14922 ft 389 kts 353°
2026-05-04 20:09 -28.42510 -58.98279 14462 ft 386 kts 353°
2026-05-04 20:10 -28.39842 -58.98483 14115 ft 381 kts 353°
2026-05-04 20:10 -28.37243 -58.98675 14024 ft 368 kts 354°
2026-05-04 20:10 -28.34751 -58.98272 13979 ft 362 kts 22°
2026-05-04 20:10 -28.32666 -58.96734 14010 ft 357 kts 36°
2026-05-04 20:11 -28.30689 -58.95027 13838 ft 358 kts 29°
2026-05-04 20:11 -28.28381 -58.94147 13477 ft 349 kts
2026-05-04 20:11 -28.25985 -58.94017 13262 ft 343 kts 358°
2026-05-04 20:11 -28.23591 -58.93965 12908 ft 344 kts 359°
2026-05-04 20:12 -28.21199 -58.93777 12533 ft 344 kts
2026-05-04 20:12 -28.18828 -58.93409 12137 ft 344 kts
2026-05-04 20:12 -28.16471 -58.92909 11730 ft 345 kts
2026-05-04 20:12 -28.14127 -58.92331 11324 ft 345 kts 10°
2026-05-04 20:13 -28.11797 -58.91711 10929 ft 344 kts 11°
2026-05-04 20:13 -28.09473 -58.91069 10536 ft 344 kts 12°
2026-05-04 20:13 -28.07154 -58.90418 10150 ft 343 kts 12°
2026-05-04 20:13 -28.04842 -58.89763 9762 ft 342 kts 12°
2026-05-04 20:14 -28.02536 -58.89109 9333 ft 341 kts 12°
2026-05-04 20:14 -28.00240 -58.88457 8912 ft 340 kts 12°
2026-05-04 20:14 -27.98730 -58.88028 8631 ft 336 kts 12°
2026-05-04 20:14 -27.96490 -58.87391 8201 ft 327 kts 11°
2026-05-04 20:15 -27.93591 -58.86565 7648 ft 315 kts 11°
2026-05-04 20:15 -27.92196 -58.86168 7377 ft 309 kts 11°
2026-05-04 20:15 -27.90138 -58.85584 6975 ft 301 kts 11°
2026-05-04 20:15 -27.87493 -58.84834 6451 ft 291 kts 10°
2026-05-04 20:16 -27.85552 -58.84285 6065 ft 283 kts 10°
2026-05-04 20:16 -27.83818 -58.83794 5720 ft 276 kts 10°
2026-05-04 20:16 -27.82567 -58.83441 5469 ft 272 kts 10°
2026-05-04 20:16 -27.80753 -58.82929 5102 ft 266 kts 10°
2026-05-04 20:17 -27.78408 -58.82268 4619 ft 259 kts 10°
2026-05-04 20:17 -27.77235 -58.81937 4394 ft 255 kts 11°
2026-05-04 20:17 -27.75558 -58.81463 4070 ft 249 kts 11°
2026-05-04 20:17 -27.73895 -58.80994 3747 ft 244 kts 11°
2026-05-04 20:18 -27.72265 -58.80534 3430 ft 239 kts 11°
2026-05-04 20:18 -27.70674 -58.80154 3193 ft 227 kts
2026-05-04 20:18 -27.69157 -58.79907 3030 ft 214 kts
2026-05-04 20:18 -27.67709 -58.79715 2998 ft 207 kts
2026-05-04 20:19 -27.66269 -58.79517 2811 ft 207 kts
2026-05-04 20:19 -27.64864 -58.79311 2625 ft 199 kts
2026-05-04 20:19 -27.63515 -58.79107 2424 ft 193 kts
2026-05-04 20:19 -27.62227 -58.78909 2213 ft 185 kts
2026-05-04 20:20 -27.60984 -58.78720 2057 ft 173 kts
2026-05-04 20:20 -27.59833 -58.78543 2015 ft 165 kts
2026-05-04 20:20 -27.58691 -58.78367 2009 ft 166 kts
2026-05-04 20:20 -27.57565 -58.78192 2003 ft 159 kts
2026-05-04 20:21 -27.56487 -58.78025 2001 ft 155 kts
2026-05-04 20:21 -27.55423 -58.77859 1997 ft 153 kts
2026-05-04 20:21 -27.53333 -58.77559 1819 ft 147 kts
2026-05-04 20:22 -27.52305 -58.77398 1619 ft 150 kts
2026-05-04 20:22 -27.51268 -58.77231 1433 ft 149 kts
2026-05-04 20:22 -27.50252 -58.77078 1242 ft 150 kts
2026-05-04 20:22 -27.49215 -58.76905 993 ft 150 kts
2026-05-04 20:23 -27.48184 -58.76747 804 ft 148 kts
2026-05-04 20:23 -27.47147 -58.76590 630 ft 154 kts 10°
2026-05-04 20:23 -27.46078 -58.76419 394 ft 154 kts 10°
2026-05-04 20:23 -27.45024 -58.76254 220 ft 145 kts
2026-05-04 20:24 -27.44166 -58.76119 219 ft 89 kts
2026-05-04 20:24 -27.43826 -58.76068 220 ft 22 kts
2026-05-04 20:24 -27.43767 -58.76049 219 ft 3 kts 102°
2026-05-04 20:24 -27.43773 -58.76044 217 ft 1 kts 149°
2026-05-04 20:25 -27.43790 -58.76047 216 ft 5 kts 191°
2026-05-04 20:25 -27.43842 -58.76060 214 ft 11 kts 193°
2026-05-04 20:25 -27.43936 -58.76084 217 ft 17 kts 188°
2026-05-04 20:25 -27.44066 -58.76105 215 ft 21 kts 188°
2026-05-04 20:26 -27.44223 -58.76129 216 ft 25 kts 188°
2026-05-04 20:26 -27.44407 -58.76157 216 ft 29 kts 188°
2026-05-04 20:26 -27.44614 -58.76189 214 ft 28 kts 188°
2026-05-04 20:26 -27.44765 -58.76203 213 ft 13 kts 153°
2026-05-04 20:27 -27.44790 -58.76122 218 ft 12 kts 98°
2026-05-04 20:27 -27.44804 -58.76020 215 ft 15 kts 99°
2026-05-04 20:27 -27.44816 -58.75924 220 ft 4 kts 102°
2026-05-04 20:27 -27.44832 -58.75886 220 ft 2 kts 138°
2026-05-04 20:28 -27.44847 -58.75874 217 ft 3 kts 145°
2026-05-04 20:28 -27.44853 -58.75869 214 ft 0 kts 144°